,,,PA_Meas_PMT16A,,PR_Meas_QMR101_102,,RH_Meas_QMH101,,SR_Meas_QMS101,,TA_Meas_QMH101,,GenWind,,GenWind,
date,time,status,PA,status,PR,status,RH,status,SR,status,TA,status,DirAvg,status,SpdAvg,
2009-04-13, 00:00:04,VALID,998.017,VALID,0,VALID,93.9817,VALID,0,VALID,24.638,VALID,347,VALID,1.3207,
2009-04-13, 00:01:04,VALID,997.997,VALID,0,VALID,93.9435,VALID,0,VALID,24.638,VALID,348,VALID,0.748047,
2009-04-13, 00:02:04,VALID,997.995,VALID,0,VALID,93.9359,VALID,0.112286,VALID,24.638,VALID,348,VALID,0.512891,
2009-04-13, 00:03:04,VALID,997.955,VALID,0,VALID,93.9206,VALID,0,VALID,24.6184,VALID,348,VALID,0.337109,
2009-04-13, 00:04:04,VALID,997.908,VALID,0,VALID,93.9588,VALID,0,VALID,24.6184,VALID,348,VALID,0.211328,
2009-04-13, 00:05:04,VALID,997.9,VALID,0,VALID,93.9893,VALID,0,VALID,24.5971,VALID,348,VALID,0,
2009-04-13, 00:06:04,VALID,997.872,VALID,0,VALID,93.9893,VALID,0.112286,VALID,24.5989,VALID,348,VALID,0.00703125,
2009-04-13, 00:07:04,VALID,997.861,VALID,0,VALID,94.0198,VALID,0,VALID,24.5794,VALID,348,VALID,0.0910156,
2009-04-13, 00:08:04,VALID,997.797,VALID,0,VALID,94.0351,VALID,0,VALID,24.5794,VALID,348,VALID,0,
2009-04-13, 00:09:04,VALID,997.8,VALID,0,VALID,94.0351,VALID,0,VALID,24.5599,VALID,348,VALID,0,
2009-04-13, 00:10:04,VALID,997.773,VALID,0,VALID,94.0198,VALID,0,VALID,24.5404,VALID,348,VALID,0,
2009-04-13, 00:11:04,VALID,997.781,VALID,0,VALID,94.0198,VALID,0,VALID,24.5404,VALID,348,VALID,0,
2009-04-13, 00:12:04,VALID,997.772,VALID,0,VALID,94.058,VALID,0,VALID,24.5422,VALID,348,VALID,0,
2009-04-13, 00:13:04,VALID,997.78,VALID,0,VALID,94.1037,VALID,0,VALID,24.5404,VALID,348,VALID,0.418359,
2009-04-13, 00:14:04,VALID,997.823,VALID,0,VALID,94.2029,VALID,0,VALID,24.5599,VALID,175,VALID,0.745313,
2009-04-13, 00:15:04,VALID,997.807,VALID,0,VALID,94.2182,VALID,0,VALID,24.5794,VALID,190,VALID,0.855469,
2009-04-13, 00:16:04,VALID,997.813,VALID,0,VALID,94.0961,VALID,0,VALID,24.5794,VALID,191,VALID,0.667578,
2009-04-13, 00:17:04,VALID,997.733,VALID,0,VALID,93.9817,VALID,0,VALID,24.6008,VALID,191,VALID,0.523047,
2009-04-13, 00:18:04,VALID,997.736,VALID,0,VALID,93.9435,VALID,0,VALID,24.5989,VALID,155,VALID,0.7,
2009-04-13, 00:19:04,VALID,997.711,VALID,0,VALID,93.8443,VALID,0,VALID,24.638,VALID,149,VALID,0.435547,
2009-04-13, 00:20:04,VALID,997.685,VALID,0,VALID,93.5849,VALID,0,VALID,24.6398,VALID,149,VALID,0.360156,
2009-04-13, 00:21:04,VALID,997.661,VALID,0,VALID,93.2874,VALID,0,VALID,24.6594,VALID,149,VALID,0.271094,
2009-04-13, 00:22:04,VALID,997.618,VALID,0,VALID,93.0737,VALID,0,VALID,24.6575,VALID,133,VALID,0.477344,
2009-04-13, 00:23:04,VALID,997.625,VALID,0,VALID,92.8143,VALID,0,VALID,24.677,VALID,54,VALID,0.670313,
2009-04-13, 00:24:04,VALID,997.591,VALID,0,VALID,92.7914,VALID,0,VALID,24.6965,VALID,36,VALID,1.0707,
2009-04-13, 00:25:04,VALID,997.588,VALID,0,VALID,92.9135,VALID,0.112286,VALID,24.6965,VALID,23,VALID,0.804688,
2009-04-13, 00:26:04,VALID,997.545,VALID,0,VALID,93.0508,VALID,0,VALID,24.6556,VALID,23,VALID,0.382813,
2009-04-13, 00:27:04,VALID,997.577,VALID,0,VALID,93.1805,VALID,0,VALID,24.6361,VALID,24,VALID,0.384375,
2009-04-13, 00:28:04,VALID,997.534,VALID,0,VALID,93.356,VALID,0,VALID,24.6361,VALID,39,VALID,0.490234,
2009-04-13, 00:29:04,VALID,997.54,VALID,0,VALID,93.4552,VALID,0.112286,VALID,24.6166,VALID,101,VALID,0.630859,
2009-04-13, 00:30:04,VALID,997.49,VALID,0,VALID,93.4781,VALID,0,VALID,24.6184,VALID,101,VALID,0.586719,
2009-04-13, 00:31:04,VALID,997.499,VALID,0,VALID,93.4934,VALID,0.112286,VALID,24.5971,VALID,101,VALID,0.432422,
2009-04-13, 00:32:04,VALID,997.5,VALID,0,VALID,93.5086,VALID,0.112286,VALID,24.5971,VALID,101,VALID,0.0414063,
2009-04-13, 00:33:04,VALID,997.489,VALID,0,VALID,93.5239,VALID,0,VALID,24.5794,VALID,101,VALID,0,
2009-04-13, 00:34:04,VALID,997.488,VALID,0,VALID,93.5468,VALID,0.112286,VALID,24.558,VALID,101,VALID,0,
2009-04-13, 00:35:04,VALID,997.474,VALID,0,VALID,93.6307,VALID,0.112286,VALID,24.558,VALID,101,VALID,0,
2009-04-13, 00:36:04,VALID,997.458,VALID,0,VALID,93.7146,VALID,0.112286,VALID,24.558,VALID,101,VALID,0,
2009-04-13, 00:37:04,VALID,997.446,VALID,0,VALID,93.7528,VALID,0,VALID,24.5599,VALID,101,VALID,0,
2009-04-13, 00:38:04,VALID,997.442,VALID,0,VALID,93.7757,VALID,0,VALID,24.5404,VALID,101,VALID,0.430078,
2009-04-13, 00:39:04,VALID,997.401,VALID,0,VALID,93.7528,VALID,0,VALID,24.5209,VALID,74,VALID,0.545313,
2009-04-13, 00:40:04,VALID,997.386,VALID,0,VALID,93.7604,VALID,0,VALID,24.4995,VALID,13,VALID,0.720703,
2009-04-13, 00:41:04,VALID,997.371,VALID,0,VALID,93.768,VALID,0,VALID,24.4995,VALID,3,VALID,0.728125,
2009-04-13, 00:42:04,VALID,997.369,VALID,0,VALID,93.7909,VALID,0,VALID,24.48,VALID,349,VALID,0.851953,
2009-04-13, 00:43:04,VALID,997.351,VALID,0,VALID,93.7985,VALID,0,VALID,24.5013,VALID,318,VALID,0.696875,
2009-04-13, 00:44:04,VALID,997.363,VALID,0,VALID,93.8825,VALID,0,VALID,24.5209,VALID,317,VALID,0.639844,
2009-04-13, 00:45:04,VALID,997.362,VALID,0,VALID,93.9283,VALID,0.112286,VALID,24.4995,VALID,318,VALID,0.530469,
2009-04-13, 00:46:04,VALID,997.338,VALID,0,VALID,93.9359,VALID,0,VALID,24.519,VALID,328,VALID,0.508984,
2009-04-13, 00:47:04,VALID,997.351,VALID,0,VALID,93.8977,VALID,0,VALID,24.5209,VALID,337,VALID,0.653516,
2009-04-13, 00:48:04,VALID,997.361,VALID,0,VALID,93.8825,VALID,0.112286,VALID,24.5209,VALID,56,VALID,0.758203,
2009-04-13, 00:49:04,VALID,997.383,VALID,0,VALID,93.8748,VALID,0.112286,VALID,24.5209,VALID,94,VALID,0.941797,
2009-04-13, 00:50:04,VALID,997.357,VALID,0,VALID,93.7299,VALID,0,VALID,24.4818,VALID,85,VALID,0.983203,
2009-04-13, 00:51:04,VALID,997.318,VALID,0,VALID,93.6994,VALID,0,VALID,24.4818,VALID,82,VALID,0.596094,
2009-04-13, 00:52:04,VALID,997.325,VALID,0,VALID,93.646,VALID,0,VALID,24.4623,VALID,26,VALID,0.586719,
2009-04-13, 00:53:04,VALID,997.285,VALID,0,VALID,93.562,VALID,0,VALID,24.4428,VALID,346,VALID,0.708203,
2009-04-13, 00:54:04,VALID,997.243,VALID,0,VALID,93.5544,VALID,0,VALID,24.4428,VALID,335,VALID,0.530469,
2009-04-13, 00:55:04,VALID,997.234,VALID,0,VALID,93.5773,VALID,0.112286,VALID,24.4623,VALID,335,VALID,0.0675781,
2009-04-13, 00:56:04,VALID,997.227,VALID,0,VALID,93.5926,VALID,0,VALID,24.4409,VALID,114,VALID,0.696484,
2009-04-13, 00:57:04,VALID,997.212,VALID,0,VALID,93.6688,VALID,0.112286,VALID,24.4623,VALID,141,VALID,1.00781,
2009-04-13, 00:58:04,VALID,997.22,VALID,0,VALID,93.6841,VALID,0.112286,VALID,24.4623,VALID,144,VALID,0.967578,
2009-04-13, 00:59:04,VALID,997.218,VALID,0,VALID,93.6307,VALID,0,VALID,24.4818,VALID,137,VALID,1.59883,
2009-04-13, 01:00:04,VALID,997.237,VALID,0,VALID,93.6536,VALID,0,VALID,24.5013,VALID,151,VALID,1.20039,
2009-04-13, 01:01:04,VALID,997.242,VALID,0,VALID,93.6688,VALID,0,VALID,24.5404,VALID,149,VALID,1.07969,
2009-04-13, 01:02:04,VALID,997.27,VALID,0,VALID,93.5926,VALID,0,VALID,24.5404,VALID,145,VALID,1.1332,
2009-04-13, 01:03:04,VALID,997.277,VALID,0,VALID,93.5086,VALID,0,VALID,24.5618,VALID,124,VALID,1.04297,
2009-04-13, 01:04:04,VALID,997.257,VALID,0,VALID,93.4934,VALID,0,VALID,24.5599,VALID,112,VALID,1.17305,
2009-04-13, 01:05:04,VALID,997.282,VALID,0,VALID,93.501,VALID,0,VALID,24.5794,VALID,107,VALID,1.03516,
2009-04-13, 01:06:04,VALID,997.27,VALID,0,VALID,93.44,VALID,0,VALID,24.5599,VALID,118,VALID,1.56328,
2009-04-13, 01:07:04,VALID,997.271,VALID,0,VALID,93.4781,VALID,0,VALID,24.5794,VALID,116,VALID,1.60625,
2009-04-13, 01:08:04,VALID,997.274,VALID,0,VALID,93.5468,VALID,0,VALID,24.558,VALID,118,VALID,1.07344,
2009-04-13, 01:09:04,VALID,997.263,VALID,0,VALID,93.5239,VALID,0,VALID,24.5794,VALID,117,VALID,1.3168,
2009-04-13, 01:10:04,VALID,997.241,VALID,0,VALID,93.5086,VALID,0,VALID,24.5599,VALID,124,VALID,1.17031,
2009-04-13, 01:11:04,VALID,997.243,VALID,0,VALID,93.3026,VALID,0,VALID,24.5404,VALID,139,VALID,1.3375,
2009-04-13, 01:12:04,VALID,997.227,VALID,0,VALID,93.2034,VALID,0,VALID,24.5794,VALID,142,VALID,0.855859,
2009-04-13, 01:13:04,VALID,997.214,VALID,0,VALID,93.0661,VALID,0,VALID,24.5989,VALID,149,VALID,1.12852,
2009-04-13, 01:14:04,VALID,997.159,VALID,0,VALID,93.0356,VALID,0,VALID,24.6184,VALID,130,VALID,0.718359,
2009-04-13, 01:15:04,VALID,997.125,VALID,0,VALID,92.9974,VALID,0.112286,VALID,24.6166,VALID,131,VALID,0.716797,
2009-04-13, 01:16:04,VALID,997.084,VALID,0,VALID,92.9517,VALID,0,VALID,24.638,VALID,131,VALID,0.646875,
2009-04-13, 01:17:04,VALID,997.071,VALID,0,VALID,92.9745,VALID,0,VALID,24.638,VALID,141,VALID,0.638281,
2009-04-13, 01:18:04,VALID,997.042,VALID,0,VALID,92.7991,VALID,0,VALID,24.638,VALID,159,VALID,0.653125,
2009-04-13, 01:19:04,VALID,997.022,VALID,0,VALID,92.8448,VALID,0,VALID,24.6575,VALID,131,VALID,0.626562,
2009-04-13, 01:20:04,VALID,996.987,VALID,0,VALID,92.8296,VALID,0.112286,VALID,24.6575,VALID,131,VALID,0.576953,
2009-04-13, 01:21:04,VALID,996.969,VALID,0,VALID,92.7457,VALID,0,VALID,24.6575,VALID,133,VALID,0.516797,
2009-04-13, 01:22:04,VALID,996.925,VALID,0,VALID,92.7304,VALID,0,VALID,24.677,VALID,148,VALID,0.395312,
2009-04-13, 01:23:04,VALID,996.873,VALID,0,VALID,92.738,VALID,0.112286,VALID,24.677,VALID,161,VALID,0.664453,
2009-04-13, 01:24:04,VALID,996.826,VALID,0,VALID,92.4557,VALID,0.112286,VALID,24.6556,VALID,172,VALID,1.13633,
2009-04-13, 01:25:04,VALID,996.79,VALID,0,VALID,92.3718,VALID,0,VALID,24.677,VALID,180,VALID,0.920313,
2009-04-13, 01:26:04,VALID,996.76,VALID,0,VALID,92.3337,VALID,0,VALID,24.6751,VALID,187,VALID,0.987891,
2009-04-13, 01:27:04,VALID,996.754,VALID,0,VALID,92.3489,VALID,0,VALID,24.7356,VALID,184,VALID,1.0207,
2009-04-13, 01:28:04,VALID,996.704,VALID,0,VALID,91.5783,VALID,0,VALID,24.716,VALID,191,VALID,1.34492,
2009-04-13, 01:29:04,VALID,996.74,VALID,0,VALID,91.4105,VALID,0,VALID,24.7551,VALID,198,VALID,0.992578,
2009-04-13, 01:30:04,VALID,996.714,VALID,0,VALID,91.6851,VALID,0,VALID,24.7922,VALID,198,VALID,0.894922,
2009-04-13, 01:31:04,VALID,996.703,VALID,0,VALID,91.6241,VALID,0,VALID,24.8136,VALID,206,VALID,0.823828,
2009-04-13, 01:32:04,VALID,996.691,VALID,0,VALID,91.5097,VALID,0,VALID,24.8136,VALID,194,VALID,1.04727,
2009-04-13, 01:33:04,VALID,996.659,VALID,0,VALID,91.4257,VALID,0,VALID,24.8332,VALID,198,VALID,0.499219,
2009-04-13, 01:34:04,VALID,996.62,VALID,0,VALID,91.3571,VALID,0,VALID,24.8332,VALID,242,VALID,0.582031,
2009-04-13, 01:35:04,VALID,996.622,VALID,0,VALID,91.2884,VALID,0,VALID,24.8332,VALID,230,VALID,0.938281,
2009-04-13, 01:36:04,VALID,996.613,VALID,0,VALID,91.235,VALID,0,VALID,24.8332,VALID,219,VALID,0.665625,
2009-04-13, 01:37:04,VALID,996.599,VALID,0,VALID,91.296,VALID,0,VALID,24.8332,VALID,221,VALID,0.735547,
2009-04-13, 01:38:04,VALID,996.598,VALID,0,VALID,91.3037,VALID,0.112286,VALID,24.8332,VALID,230,VALID,0.794922,
2009-04-13, 01:39:04,VALID,996.596,VALID,0,VALID,91.5631,VALID,0,VALID,24.8136,VALID,236,VALID,0.594531,
2009-04-13, 01:40:04,VALID,996.597,VALID,0,VALID,91.6012,VALID,0,VALID,24.8136,VALID,238,VALID,0.348437,
2009-04-13, 01:41:04,VALID,996.6,VALID,0,VALID,91.7004,VALID,0,VALID,24.7941,VALID,240,VALID,0.203125,
2009-04-13, 01:42:04,VALID,996.587,VALID,0,VALID,91.792,VALID,0.112286,VALID,24.7746,VALID,241,VALID,0.353125,
2009-04-13, 01:43:04,VALID,996.614,VALID,0,VALID,91.9064,VALID,0,VALID,24.7551,VALID,241,VALID,0.0453125,
2009-04-13, 01:44:04,VALID,996.631,VALID,0,VALID,91.9674,VALID,0,VALID,24.7356,VALID,241,VALID,0.341406,
2009-04-13, 01:45:04,VALID,996.652,VALID,0,VALID,92.0666,VALID,0,VALID,24.6965,VALID,241,VALID,0.207813,
2009-04-13, 01:46:04,VALID,996.625,VALID,0,VALID,92.1429,VALID,0,VALID,24.6965,VALID,241,VALID,0.294141,
2009-04-13, 01:47:04,VALID,996.641,VALID,0,VALID,92.1811,VALID,0,VALID,24.677,VALID,241,VALID,0.159375,
2009-04-13, 01:48:04,VALID,996.621,VALID,0,VALID,92.1887,VALID,0,VALID,24.6575,VALID,241,VALID,0,
2009-04-13, 01:49:04,VALID,996.633,VALID,0,VALID,92.2421,VALID,0,VALID,24.638,VALID,241,VALID,0,
2009-04-13, 01:50:04,VALID,996.661,VALID,0,VALID,92.265,VALID,0,VALID,24.6594,VALID,241,VALID,0.0367187,
2009-04-13, 01:51:04,VALID,996.666,VALID,0,VALID,92.3718,VALID,0,VALID,24.638,VALID,241,VALID,0,
2009-04-13, 01:52:04,VALID,996.687,VALID,0,VALID,92.4634,VALID,0,VALID,24.638,VALID,241,VALID,0.112109,
2009-04-13, 01:53:04,VALID,996.706,VALID,0,VALID,92.5397,VALID,0,VALID,24.6166,VALID,241,VALID,0.472266,
2009-04-13, 01:54:04,VALID,996.706,VALID,0,VALID,92.6388,VALID,0.112286,VALID,24.638,VALID,241,VALID,0.178906,
2009-04-13, 01:55:04,VALID,996.717,VALID,0,VALID,92.7685,VALID,0,VALID,24.5971,VALID,241,VALID,0.261328,
2009-04-13, 01:56:04,VALID,996.739,VALID,0,VALID,92.7609,VALID,0,VALID,24.6166,VALID,126,VALID,0.63125,
2009-04-13, 01:57:04,VALID,996.78,VALID,0,VALID,92.7151,VALID,0,VALID,24.6184,VALID,130,VALID,0.487109,
2009-04-13, 01:58:04,VALID,996.746,VALID,0,VALID,92.7914,VALID,0,VALID,24.638,VALID,130,VALID,0.475781,
2009-04-13, 01:59:04,VALID,996.775,VALID,0,VALID,92.7914,VALID,0,VALID,24.6184,VALID,150,VALID,0.541406,
2009-04-13, 02:00:04,VALID,996.762,VALID,0,VALID,92.8296,VALID,0,VALID,24.638,VALID,175,VALID,0.856641,
2009-04-13, 02:01:04,VALID,996.761,VALID,0,VALID,92.9669,VALID,0,VALID,24.638,VALID,184,VALID,1.28633,
2009-04-13, 02:02:04,VALID,996.767,VALID,0,VALID,93.0203,VALID,0,VALID,24.638,VALID,183,VALID,1.03086,
2009-04-13, 02:03:04,VALID,996.773,VALID,0,VALID,92.9745,VALID,0,VALID,24.638,VALID,187,VALID,0.868359,
2009-04-13, 02:04:04,VALID,996.785,VALID,0,VALID,92.9974,VALID,0,VALID,24.6166,VALID,187,VALID,0.364062,
2009-04-13, 02:05:04,VALID,996.796,VALID,0,VALID,92.9288,VALID,0,VALID,24.6575,VALID,198,VALID,0.485156,
2009-04-13, 02:06:04,VALID,996.823,VALID,0,VALID,92.944,VALID,0,VALID,24.6575,VALID,198,VALID,0.163281,
2009-04-13, 02:07:04,VALID,996.815,VALID,0,VALID,92.9898,VALID,0,VALID,24.6575,VALID,198,VALID,0.0941406,
2009-04-13, 02:08:04,VALID,996.827,VALID,0,VALID,93.028,VALID,0,VALID,24.638,VALID,201,VALID,0.348047,
2009-04-13, 02:09:04,VALID,996.825,VALID,0,VALID,93.1043,VALID,0,VALID,24.6166,VALID,201,VALID,0.325,
2009-04-13, 02:10:04,VALID,996.815,VALID,0,VALID,93.1271,VALID,0,VALID,24.6184,VALID,232,VALID,0.344141,
2009-04-13, 02:11:04,VALID,996.858,VALID,0,VALID,93.1882,VALID,0,VALID,24.5989,VALID,291,VALID,0.766797,
2009-04-13, 02:12:04,VALID,996.868,VALID,0,VALID,93.2416,VALID,0,VALID,24.5775,VALID,294,VALID,0.747266,
2009-04-13, 02:13:04,VALID,996.858,VALID,0,VALID,93.2568,VALID,0.112286,VALID,24.5794,VALID,294,VALID,0.727734,
2009-04-13, 02:14:04,VALID,996.869,VALID,0,VALID,93.2797,VALID,0,VALID,24.5599,VALID,294,VALID,0.655469,
2009-04-13, 02:15:04,VALID,996.869,VALID,0,VALID,93.295,VALID,0,VALID,24.5385,VALID,294,VALID,0.672656,
2009-04-13, 02:16:04,VALID,996.869,VALID,0,VALID,93.3026,VALID,0,VALID,24.519,VALID,293,VALID,0.630859,
2009-04-13, 02:17:04,VALID,996.879,VALID,0,VALID,93.3484,VALID,0,VALID,24.5209,VALID,293,VALID,0.753516,
2009-04-13, 02:18:04,VALID,996.88,VALID,0,VALID,93.3789,VALID,0.112286,VALID,24.4995,VALID,294,VALID,0.492188,
2009-04-13, 02:19:04,VALID,996.911,VALID,0,VALID,93.4247,VALID,0.112286,VALID,24.5013,VALID,287,VALID,0.440625,
2009-04-13, 02:20:04,VALID,996.929,VALID,0,VALID,93.4857,VALID,0.112286,VALID,24.48,VALID,293,VALID,0.5125,
2009-04-13, 02:21:04,VALID,996.943,VALID,0,VALID,93.5391,VALID,0,VALID,24.48,VALID,293,VALID,0.277734,
2009-04-13, 02:22:04,VALID,996.942,VALID,0,VALID,93.6078,VALID,0,VALID,24.5013,VALID,293,VALID,0.542188,
2009-04-13, 02:23:04,VALID,996.993,VALID,0,VALID,93.646,VALID,0.112286,VALID,24.4604,VALID,293,VALID,0.283984,
2009-04-13, 02:24:04,VALID,996.998,VALID,0,VALID,93.6688,VALID,0,VALID,24.4818,VALID,290,VALID,0.316016,
2009-04-13, 02:25:04,VALID,997.026,VALID,0,VALID,93.7146,VALID,0,VALID,24.4623,VALID,290,VALID,0.137109,
2009-04-13, 02:26:04,VALID,997.049,VALID,0,VALID,93.707,VALID,0.112286,VALID,24.4623,VALID,289,VALID,0.362109,
2009-04-13, 02:27:04,VALID,997.062,VALID,0,VALID,93.768,VALID,0.112286,VALID,24.4623,VALID,287,VALID,0.191016,
2009-04-13, 02:28:04,VALID,997.132,VALID,0,VALID,93.7985,VALID,0,VALID,24.4409,VALID,287,VALID,0.213672,
2009-04-13, 02:29:04,VALID,997.146,VALID,0,VALID,93.8062,VALID,0,VALID,24.4623,VALID,287,VALID,0.321094,
2009-04-13, 02:30:04,VALID,997.153,VALID,0,VALID,93.7909,VALID,0,VALID,24.4214,VALID,286,VALID,0.232031,
2009-04-13, 02:31:04,VALID,997.203,VALID,0,VALID,93.8214,VALID,0.112286,VALID,24.4409,VALID,286,VALID,0.116797,
2009-04-13, 02:32:04,VALID,997.245,VALID,0,VALID,93.8291,VALID,0.112286,VALID,24.4409,VALID,286,VALID,0.192188,
2009-04-13, 02:33:04,VALID,997.231,VALID,0,VALID,93.7757,VALID,0.112286,VALID,24.4428,VALID,232,VALID,0.519531,
2009-04-13, 02:34:04,VALID,997.271,VALID,0,VALID,93.7757,VALID,0,VALID,24.4214,VALID,232,VALID,0.445313,
2009-04-13, 02:35:04,VALID,997.246,VALID,0,VALID,93.7375,VALID,0,VALID,24.4428,VALID,232,VALID,0.421094,
2009-04-13, 02:36:04,VALID,997.251,VALID,0,VALID,93.707,VALID,0,VALID,24.4409,VALID,232,VALID,0.0433594,
2009-04-13, 02:37:04,VALID,997.264,VALID,0,VALID,93.6307,VALID,0.112286,VALID,24.4428,VALID,232,VALID,0.119922,
2009-04-13, 02:38:04,VALID,997.256,VALID,0,VALID,93.646,VALID,0.112286,VALID,24.4214,VALID,232,VALID,0,
2009-04-13, 02:39:04,VALID,997.296,VALID,0,VALID,93.6307,VALID,0,VALID,24.4019,VALID,232,VALID,0,
2009-04-13, 02:40:04,VALID,997.274,VALID,0,VALID,93.6154,VALID,0,VALID,24.4214,VALID,232,VALID,0,
2009-04-13, 02:41:04,VALID,997.249,VALID,0,VALID,93.6307,VALID,0,VALID,24.4233,VALID,232,VALID,0,
2009-04-13, 02:42:04,VALID,997.225,VALID,0,VALID,93.6612,VALID,0,VALID,24.4233,VALID,232,VALID,0,
2009-04-13, 02:43:04,VALID,997.196,VALID,0,VALID,93.6688,VALID,0.112286,VALID,24.4428,VALID,232,VALID,0,
2009-04-13, 02:44:04,VALID,997.164,VALID,0,VALID,93.7451,VALID,0.112286,VALID,24.4214,VALID,114,VALID,0,
2009-04-13, 02:45:04,VALID,997.128,VALID,0,VALID,93.7833,VALID,0.112286,VALID,24.4409,VALID,114,VALID,0,
2009-04-13, 02:46:04,VALID,997.106,VALID,0,VALID,93.8214,VALID,0,VALID,24.4214,VALID,114,VALID,0.503516,
2009-04-13, 02:47:04,VALID,997.089,VALID,0,VALID,93.8977,VALID,0.112286,VALID,24.4623,VALID,114,VALID,0.602734,
2009-04-13, 02:48:04,VALID,997.062,VALID,0,VALID,93.9511,VALID,0.112286,VALID,24.4623,VALID,114,VALID,0.691016,
2009-04-13, 02:49:04,VALID,997.052,VALID,0,VALID,93.9817,VALID,0,VALID,24.4409,VALID,114,VALID,0.605859,
2009-04-13, 02:50:04,VALID,997.065,VALID,0,VALID,93.9588,VALID,0.112286,VALID,24.4409,VALID,127,VALID,0.88125,
2009-04-13, 02:51:04,VALID,997.072,VALID,0,VALID,93.9969,VALID,0.112286,VALID,24.4623,VALID,127,VALID,0.966797,
2009-04-13, 02:52:05,VALID,997.02,VALID,0,VALID,94.0122,VALID,0.112286,VALID,24.4623,VALID,124,VALID,0.843359,
2009-04-13, 02:53:05,VALID,996.991,VALID,0,VALID,94.0427,VALID,0.112286,VALID,24.4623,VALID,115,VALID,0.874609,
2009-04-13, 02:54:05,VALID,997,VALID,0,VALID,94.0351,VALID,0.112286,VALID,24.4409,VALID,113,VALID,0.784375,
2009-04-13, 02:55:05,VALID,996.999,VALID,0,VALID,94.0732,VALID,0,VALID,24.4623,VALID,111,VALID,0.524609,
2009-04-13, 02:56:05,VALID,996.974,VALID,0,VALID,94.1419,VALID,0,VALID,24.4409,VALID,111,VALID,0.632031,
2009-04-13, 02:57:05,VALID,996.992,VALID,0,VALID,94.1724,VALID,0,VALID,24.4623,VALID,111,VALID,0.515625,
2009-04-13, 02:58:05,VALID,996.963,VALID,0,VALID,94.18,VALID,0,VALID,24.4623,VALID,111,VALID,0.785937,
2009-04-13, 02:59:05,VALID,996.952,VALID,0,VALID,94.1953,VALID,0,VALID,24.4428,VALID,110,VALID,0.746875,
2009-04-13, 03:00:05,VALID,996.938,VALID,0,VALID,94.2105,VALID,0,VALID,24.4428,VALID,105,VALID,0.718359,
2009-04-13, 03:01:05,VALID,996.913,VALID,0,VALID,94.2258,VALID,0,VALID,24.4233,VALID,92,VALID,0.645703,
2009-04-13, 03:02:05,VALID,996.874,VALID,0,VALID,94.2487,VALID,0.112286,VALID,24.4214,VALID,92,VALID,0.485156,
2009-04-13, 03:03:05,VALID,996.842,VALID,0,VALID,94.2182,VALID,0.112286,VALID,24.3824,VALID,84,VALID,0.546484,
2009-04-13, 03:04:05,VALID,996.826,VALID,0,VALID,94.2411,VALID,0.112286,VALID,24.4037,VALID,79,VALID,0.300391,
2009-04-13, 03:05:05,VALID,996.778,VALID,0,VALID,94.2334,VALID,0,VALID,24.3842,VALID,52,VALID,0.501172,
2009-04-13, 03:06:05,VALID,996.772,VALID,0,VALID,94.2105,VALID,0,VALID,24.3842,VALID,1,VALID,0.685547,
2009-04-13, 03:07:05,VALID,996.749,VALID,0,VALID,94.2334,VALID,0,VALID,24.3452,VALID,351,VALID,0.777344,
2009-04-13, 03:08:05,VALID,996.728,VALID,0,VALID,94.3021,VALID,0,VALID,24.3666,VALID,344,VALID,0.691406,
2009-04-13, 03:09:05,VALID,996.731,VALID,0,VALID,94.325,VALID,0,VALID,24.3452,VALID,344,VALID,0.513672,
2009-04-13, 03:10:05,VALID,996.719,VALID,0,VALID,94.3403,VALID,0,VALID,24.3666,VALID,344,VALID,0.351172,
2009-04-13, 03:11:05,VALID,996.698,VALID,0,VALID,94.3631,VALID,0,VALID,24.3452,VALID,344,VALID,0.308984,
2009-04-13, 03:12:05,VALID,996.7,VALID,0,VALID,94.3403,VALID,0,VALID,24.347,VALID,344,VALID,0.116406,
2009-04-13, 03:13:05,VALID,996.68,VALID,0,VALID,94.3479,VALID,0,VALID,24.347,VALID,344,VALID,0.169922,
2009-04-13, 03:14:05,VALID,996.715,VALID,0,VALID,94.3403,VALID,0,VALID,24.3062,VALID,344,VALID,0,
2009-04-13, 03:15:05,VALID,996.723,VALID,0,VALID,94.3708,VALID,0,VALID,24.308,VALID,344,VALID,0,
2009-04-13, 03:16:05,VALID,996.706,VALID,0,VALID,94.386,VALID,0,VALID,24.308,VALID,344,VALID,0.363281,
2009-04-13, 03:17:05,VALID,996.688,VALID,0,VALID,94.3784,VALID,0,VALID,24.2885,VALID,344,VALID,0.533203,
2009-04-13, 03:18:05,VALID,996.691,VALID,0,VALID,94.3631,VALID,0,VALID,24.269,VALID,37,VALID,0.721875,
2009-04-13, 03:19:05,VALID,996.672,VALID,0,VALID,94.3631,VALID,0,VALID,24.269,VALID,42,VALID,0.534766,
2009-04-13, 03:20:05,VALID,996.656,VALID,0,VALID,94.4013,VALID,0,VALID,24.2476,VALID,55,VALID,1.03828,
2009-04-13, 03:21:05,VALID,996.655,VALID,0,VALID,94.4394,VALID,0,VALID,24.2495,VALID,63,VALID,0.884375,
2009-04-13, 03:22:05,VALID,996.662,VALID,0,VALID,94.4776,VALID,0,VALID,24.2281,VALID,66,VALID,0.639453,
2009-04-13, 03:23:05,VALID,996.637,VALID,0,VALID,94.4852,VALID,0,VALID,24.2299,VALID,72,VALID,0.549219,
2009-04-13, 03:24:05,VALID,996.616,VALID,0,VALID,94.4852,VALID,0,VALID,24.2086,VALID,74,VALID,0.353516,
2009-04-13, 03:25:05,VALID,996.664,VALID,0,VALID,94.5005,VALID,0,VALID,24.2104,VALID,74,VALID,0.325781,
2009-04-13, 03:26:05,VALID,996.656,VALID,0,VALID,94.5234,VALID,0,VALID,24.2104,VALID,74,VALID,0.312891,
2009-04-13, 03:27:05,VALID,996.658,VALID,0,VALID,94.5081,VALID,0,VALID,24.1909,VALID,74,VALID,0.329297,
2009-04-13, 03:28:05,VALID,996.664,VALID,0,VALID,94.5386,VALID,0,VALID,24.1909,VALID,74,VALID,0.263281,
2009-04-13, 03:29:05,VALID,996.643,VALID,0,VALID,94.5615,VALID,0,VALID,24.1909,VALID,74,VALID,0.113672,
2009-04-13, 03:30:05,VALID,996.63,VALID,0,VALID,94.5691,VALID,0,VALID,24.15,VALID,74,VALID,0.200781,
2009-04-13, 03:31:05,VALID,996.622,VALID,0,VALID,94.5768,VALID,0,VALID,24.1714,VALID,152,VALID,0.56875,
2009-04-13, 03:32:05,VALID,996.611,VALID,0,VALID,94.5844,VALID,0,VALID,24.1696,VALID,152,VALID,0.2875,
2009-04-13, 03:33:05,VALID,996.651,VALID,0,VALID,94.592,VALID,0,VALID,24.1696,VALID,152,VALID,0.288281,
2009-04-13, 03:34:05,VALID,996.592,VALID,0,VALID,94.6073,VALID,0,VALID,24.1909,VALID,152,VALID,0.334766,
2009-04-13, 03:35:05,VALID,996.601,VALID,0,VALID,94.6226,VALID,0,VALID,24.1909,VALID,156,VALID,0.371484,
2009-04-13, 03:36:05,VALID,996.595,VALID,0,VALID,94.5768,VALID,0,VALID,24.1909,VALID,131,VALID,0.620703,
2009-04-13, 03:37:05,VALID,996.585,VALID,0,VALID,94.5462,VALID,0,VALID,24.2104,VALID,130,VALID,0.735547,
2009-04-13, 03:38:05,VALID,996.578,VALID,0,VALID,94.4776,VALID,0,VALID,24.2104,VALID,133,VALID,0.448047,
2009-04-13, 03:39:05,VALID,996.566,VALID,0,VALID,94.4776,VALID,0,VALID,24.2104,VALID,133,VALID,0.355859,
2009-04-13, 03:40:05,VALID,996.581,VALID,0,VALID,94.47,VALID,0,VALID,24.2299,VALID,132,VALID,0.545703,
2009-04-13, 03:41:05,VALID,996.577,VALID,0,VALID,94.4471,VALID,0,VALID,24.2104,VALID,132,VALID,0.385156,
2009-04-13, 03:42:05,VALID,996.624,VALID,0,VALID,94.386,VALID,0,VALID,24.1891,VALID,132,VALID,0.409375,
2009-04-13, 03:43:05,VALID,996.606,VALID,0,VALID,94.3708,VALID,0,VALID,24.1696,VALID,132,VALID,0.295312,